Le nostre stazioni meteo in Italia

Pubblicità
Il mio iltempo24.it
Catania/Sigonella, Italia (16459): Temperatura & dewpoint: 16.11.2019 08:00:00 - 22.11.2019 08:00:00 (CET)Catania/Sigonella, Italia (16459): velocità del vento: 16.11.2019 08:00:00 - 22.11.2019 08:00:00 (CET)Catania/Sigonella, Italia (16459): direzione del vento: 16.11.2019 08:00:00 - 22.11.2019 08:00:00 (CET)Catania/Sigonella, Italia (16459): reduced air pressure: 16.11.2019 08:00:00 - 22.11.2019 08:00:00 (CET)Catania/Sigonella, Italia (16459): visibility: 16.11.2019 08:00:00 - 22.11.2019 08:00:00 (CET)
Data & Tempo tt [°C] td [°C] ff [km/h] ff [kn] dd ppp [hPa] vv [km]
22.11.2019 08:00:00 - - - - - - -
22.11.2019 07:00:00 7,6 6,7 5 3 ONO 1016,6 10
22.11.2019 06:00:00 8,0 7,0 5 3 OSO - 10
22.11.2019 05:00:00 8,0 8,0 9 5 O - 10
22.11.2019 04:00:00 8,8 7,9 11 6 O 1016,6 10
22.11.2019 03:00:00 8,0 7,0 11 6 SO - 10
22.11.2019 02:00:00 8,0 7,0 9 5 O - 10
22.11.2019 01:00:00 8,4 7,5 9 5 OSO 1016,6 10
22.11.2019 00:00:00 10,0 9,0 8 4 ONO - 10
21.11.2019 23:00:00 11,0 10,0 9 5 ONO - 10
21.11.2019 22:00:00 11,4 10,3 11 6 NO 1016,5 10
21.11.2019 21:00:00 12,0 11,0 9 5 ONO - 10
21.11.2019 20:00:00 12,0 11,0 13 7 ONO - 10
21.11.2019 19:00:00 12,8 12,0 9 5 O 1015,6 13
21.11.2019 18:00:00 13,0 13,0 8 4 SO - 10
21.11.2019 17:00:00 15,0 13,0 9 5 ONO - 10
21.11.2019 16:00:00 16,2 12,9 11 6 ONO 1015,3 16
21.11.2019 15:00:00 17,0 13,0 9 5 ONO - 10
21.11.2019 14:00:00 18,0 12,0 13 7 O - 10
21.11.2019 13:00:00 16,8 10,0 15 8 O 1015,9 16
21.11.2019 12:00:00 17,0 10,0 13 7 O - 10
21.11.2019 11:00:00 16,0 12,0 11 6 O - 10
21.11.2019 10:00:00 13,4 11,6 11 6 OSO 1017,5 18
21.11.2019 09:00:00 10,0 9,0 9 5 O - 10
21.11.2019 08:00:00 7,0 6,0 4 2 S - 10
21.11.2019 07:00:00 6,0 5,1 9 5 O 1017,4 10
21.11.2019 06:00:00 7,0 6,0 9 5 O - 10
21.11.2019 05:00:00 7,0 5,0 8 4 ONO - 10
21.11.2019 04:00:00 7,2 6,0 9 5 O 1017,4 10
21.11.2019 03:00:00 8,0 6,0 8 4 O - 10
21.11.2019 02:00:00 8,0 7,0 8 4 O - 10
21.11.2019 01:00:00 8,2 7,0 8 4 O 1017,6 10
21.11.2019 00:00:00 9,0 8,0 9 5 OSO - 10
20.11.2019 23:00:00 10,0 9,0 5 3 O - 10
20.11.2019 22:00:00 9,8 9,0 5 3 ONO 1017,7 10
20.11.2019 21:00:00 12,0 11,0 4 2 NO - 10
20.11.2019 20:00:00 12,0 12,0 5 3 OSO - 10
20.11.2019 19:00:00 13,0 11,9 4 2 SSE 1017,2 10
20.11.2019 18:00:00 14,0 12,0 4 2 ENE - 10
20.11.2019 17:00:00 16,0 13,0 5 3 SSO - 10
20.11.2019 16:00:00 19,0 12,0 5 3 OSO 1016,4 10
20.11.2019 15:00:00 19,0 10,0 9 5 OSO - 10
20.11.2019 14:00:00 19,0 11,0 9 5 O - 10
20.11.2019 13:00:00 18,6 9,9 13 7 O 1016,7 10
20.11.2019 12:00:00 18,0 11,0 15 8 O - 10
20.11.2019 11:00:00 16,0 11,0 16 9 O - 10
20.11.2019 10:00:00 15,0 12,9 11 6 OSO 1017,2 10
20.11.2019 09:00:00 12,0 11,0 8 4 ONO - 10
20.11.2019 08:00:00 10,0 8,0 8 4 ONO - 10
20.11.2019 07:00:00 8,0 6,6 13 7 OSO 1015,4 10
20.11.2019 06:00:00 8,0 6,0 13 7 ONO - 10
20.11.2019 05:00:00 8,0 6,0 4 2 OSO - 10
20.11.2019 04:00:00 7,2 6,0 4 2 OSO 1015,3 10
20.11.2019 03:00:00 7,0 6,0 9 5 SO - 10
20.11.2019 02:00:00 7,0 6,0 8 4 NNE - 10
20.11.2019 01:00:00 8,0 6,6 9 5 OSO 1015,4 10
20.11.2019 00:00:00 9,0 8,0 9 5 O - 10
19.11.2019 23:00:00 10,0 9,0 15 8 O - 10
19.11.2019 22:00:00 9,8 8,7 13 7 O 1015,3 10
19.11.2019 21:00:00 10,0 9,0 11 6 ONO - 10
19.11.2019 20:00:00 10,0 9,0 4 2 SO - 10
19.11.2019 19:00:00 10,4 9,5 15 8 SSO 1015,5 10
19.11.2019 18:00:00 12,0 11,0 15 8 N - 8
19.11.2019 17:00:00 13,0 12,0 22 12 O - 2,0
19.11.2019 16:00:00 12,8 12,0 5 3 NO 1016,3 2,0
19.11.2019 15:00:00 13,0 12,0 8 4 O - 2,0
19.11.2019 14:00:00 13,0 12,0 16 9 NO - 2,0
19.11.2019 13:00:00 13,4 12,6 34 18 OSO 1016,7 2,0
19.11.2019 12:00:00 16,0 15,0 5 3 ESE - 3,0
19.11.2019 11:00:00 17,0 15,0 16 9 ESE - 8
19.11.2019 10:00:00 16,0 14,4 5 3 ENE 1017,5 8
19.11.2019 09:00:00 13,0 12,0 2 1 NNE - 8
19.11.2019 08:00:00 12,0 11,0 4 2 ONO - 8
19.11.2019 07:00:00 10,8 10,0 4 2 N 1017,6 4,0
19.11.2019 06:00:00 11,0 10,0 4 2 SO - 10
19.11.2019 05:00:00 10,0 9,0 4 2 NO - 10
19.11.2019 04:00:00 10,2 9,3 5 3 S 1017,6 15
19.11.2019 03:00:00 11,0 10,0 4 2 E - 10
19.11.2019 02:00:00 11,0 11,0 5 3 NNO - 10
19.11.2019 01:00:00 11,4 10,6 4 2 ESE 1018,6 12
19.11.2019 00:00:00 13,0 12,0 5 3 O - 10
18.11.2019 23:00:00 13,0 11,0 8 4 ENE - 10
18.11.2019 22:00:00 13,0 12,1 9 5 E 1018,6 12
18.11.2019 21:00:00 13,0 13,0 4 2 NE - 10
18.11.2019 20:00:00 13,0 13,0 2 1 SSE - 10
18.11.2019 19:00:00 13,6 12,7 2 1 E 1018,4 10
18.11.2019 18:00:00 14,0 13,0 4 2 SSO - 10
18.11.2019 17:00:00 14,0 13,0 9 5 SE - 10
18.11.2019 16:00:00 16,8 10,0 11 6 SE 1018,0 10
18.11.2019 15:00:00 18,0 9,0 4 2 NNO - 10
18.11.2019 14:00:00 19,0 8,0 5 3 SO - 10
18.11.2019 13:00:00 18,8 9,0 5 3 ONO 1018,7 10
18.11.2019 12:00:00 19,0 10,0 8 4 OSO - 10
18.11.2019 11:00:00 17,0 12,0 9 5 O - 10
18.11.2019 10:00:00 15,0 11,2 8 4 ONO 1019,3 10
18.11.2019 09:00:00 13,0 11,0 8 4 O - 10
18.11.2019 08:00:00 12,0 10,0 4 2 NNO - 10
18.11.2019 07:00:00 10,2 8,8 9 5 ONO 1018,3 10
18.11.2019 06:00:00 10,0 10,0 9 5 ONO - 10
18.11.2019 05:00:00 11,0 10,0 11 6 NO - 10
18.11.2019 04:00:00 11,0 10,5 11 6 ONO 1016,3 10
18.11.2019 03:00:00 10,0 10,0 13 7 O - 10
18.11.2019 02:00:00 11,0 10,0 11 6 ONO - 10
18.11.2019 01:00:00 11,4 10,9 4 2 NE 1015,5 10
18.11.2019 00:00:00 12,0 11,0 5 3 N - 10
17.11.2019 23:00:00 12,0 11,0 2 1 NNO - 10
17.11.2019 22:00:00 12,8 12,2 13 7 SSO 1014,9 10
17.11.2019 21:00:00 13,0 12,0 15 8 O - 10
17.11.2019 20:00:00 12,0 12,0 16 9 ONO - 10
17.11.2019 19:00:00 12,2 12,2 13 7 OSO 1012,9 10
17.11.2019 18:00:00 13,0 13,0 16 9 OSO - 10
17.11.2019 17:00:00 14,0 14,0 16 9 O - 10
17.11.2019 16:00:00 16,2 12,0 22 12 OSO 1010,8 10
17.11.2019 15:00:00 16,0 12,0 15 8 SO - 10
17.11.2019 14:00:00 18,0 13,0 29 16 OSO - 10
17.11.2019 13:00:00 19,2 14,5 22 12 O 1009,9 10
17.11.2019 12:00:00 20,0 17,0 18 10 OSO - 9
17.11.2019 11:00:00 20,0 16,0 28 15 OSO - 8
17.11.2019 10:00:00 20,0 17,8 24 13 OSO 1009,6 7
17.11.2019 09:00:00 18,0 17,0 13 7 OSO - 5
17.11.2019 08:00:00 19,0 18,0 18 10 E - 6
17.11.2019 07:00:00 18,0 17,7 21 11 E 1008,5 7
17.11.2019 06:00:00 18,0 18,0 21 11 E - 8
17.11.2019 05:00:00 19,0 18,0 16 9 E - 7
17.11.2019 04:00:00 18,2 17,2 16 9 E 1009,4 7
17.11.2019 03:00:00 19,0 17,0 18 10 SE - 7
17.11.2019 02:00:00 19,0 17,0 22 12 SE - 7
17.11.2019 01:00:00 18,4 16,7 18 10 ESE 1010,1 7
17.11.2019 00:00:00 18,0 17,0 16 9 ESE - 7
16.11.2019 23:00:00 18,0 17,0 22 12 E - 7
16.11.2019 22:00:00 18,0 17,4 22 12 E 1011,4 8
16.11.2019 21:00:00 18,0 17,0 15 8 E - 8
16.11.2019 20:00:00 18,0 17,0 15 8 E - 6
16.11.2019 19:00:00 17,8 17,0 21 11 ENE 1011,8 6
16.11.2019 18:00:00 18,0 17,0 22 12 E - 6
16.11.2019 17:00:00 19,0 16,0 18 10 E - 6
16.11.2019 16:00:00 19,8 17,4 21 11 ESE 1012,4 6
16.11.2019 15:00:00 22,0 17,0 18 10 SE - 10
16.11.2019 14:00:00 22,0 16,0 22 12 SSE - 5
16.11.2019 13:00:00 22,2 15,1 21 11 S 1013,4 5
16.11.2019 12:00:00 22,0 17,0 18 10 SSE - 5
16.11.2019 11:00:00 20,0 19,0 21 11 N - 5
16.11.2019 10:00:00 18,8 17,5 22 12 E 1015,3 4,0
16.11.2019 09:00:00 18,0 17,0 13 7 E - 4,0
16.11.2019 08:00:00 13,0 12,0 4 2 OSO - 4,0

tt = Temperatura
td = dewpoint
ff = velocità del vento
dd = direzione del vento
ppp = reduced air pressure
vv = visibility

Stazioni seguenti

WeatherPro
AMSI
MeteoEarth